Regional Weather Roundup
Issued by NWS

Home | Current Version | Previous Version | Graphics & Text | Print | Product List | Glossary On
Versions: 1 2 3 4 5 6 7 8 9 10 11 12 13 14 15 16 17 18 19 20 21 22 23 24 25 26 27 28 29 30 31 32 33 34 35 36 37 38 39 40 41 42 43 44 45 46 47 48 49 50
000
ASUS43 KDMX 111007
RWRIA

WEATHER ROUNDUP FOR IOWA
NATIONAL WEATHER SERVICE DES MOINES IA
500 AM CDT FRI JUL 11 2014

NOTE: "FAIR" INDICATES FEW OR NO CLOUDS BELOW 12,000 FEET WITH NO
SIGNIFICANT WEATHER AND/OR OBSTRUCTIONS TO VISIBILITY.

* - THESE STATIONS ARE NOT NWS STATIONS...THUS NOT UNDER NWS
QUALITY CONTROL.  THEY ALSO DO NOT REPORT WEATHER SUCH
AS PRECIPITATION OR FOG.

IAZ001>003-012>014-020>022-031>034-043>046-111100-
   NORTHWEST IOWA

CITY           SKY/WX    TMP DP  RH WIND       PRES   REMARKS
CARROLL *      CLEAR     66  63  88 CALM      30.05R
CHEROKEE *     CLOUDY    68  66  94 SE7       30.01F
DENISON *      CLEAR     68  64  88 S6        30.01F
LE MARS *      CLOUDY    70  68  94 SE7       30.00R
ORANGE CITY *  LGT RAIN  70  64  83 S9        29.99F
SHELDON *      LGT RAIN  68  66  94 S16G25    29.95F
SIOUX CITY     CLOUDY    70  66  87 SE9       29.97F
SPENCER        LGT RAIN  67  63  87 S15       30.00F
STORM LAKE *   CLEAR     66  66 100 SE7       30.05S
$$

IAZ055>058-069>071-079>083-090>094-111100-
   SOUTHWEST IOWA

CITY           SKY/WX    TMP DP  RH WIND       PRES   REMARKS
ATLANTIC *     CLEAR     68  63  83 S6        30.03R
AUDUBON *      CLEAR     70  64  83 S5        30.05R
CLARINDA *     CLEAR     66  64  94 S6        30.04S
COUNCIL BLFS * MOCLDY    68  68 100 SE9       30.00S
CRESTON *      CLEAR     64  61  88 SE9       30.06S
HARLAN  *      CLEAR     68  64  88 S8        30.05F
LAMONI         CLEAR     64  59  83 SE7       30.08R
RED OAK *      MOCLDY    68  64  88 S6G12     30.02R
SHENANDOAH *   CLOUDY    70  66  88 SE8       30.01S
$$

IAZ047>049-059>061-072>074-084-111100-
   CENTRAL IOWA

CITY           SKY/WX    TMP DP  RH WIND       PRES   REMARKS
AMES           CLOUDY    64  60  87 SE6       30.07R
ANKENY *       CLEAR     66  59  77 S7G14     30.07S
CHARITON *     CLOUDY    64  59  82 S10       30.09R
DES MOINES     CLOUDY    68  59  73 SE9       30.06S
GRINNELL*      CLOUDY    64  57  77 SE10      30.10S
KNOXVILLE *    CLOUDY    64  57  77 SE8       30.08R
MARSHALLTOWN   CLOUDY    68  57  68 S10       30.09R
PELLA *        MOCLDY    64  57  77 S8        30.11R
PERRY *          N/A     66  61  82 SE6       30.06R
$$

IAZ004>006-015-016-023>025-035-036-111100-
   NORTH CENTRAL IOWA

CITY           SKY/WX    TMP DP  RH WIND       PRES   REMARKS
ALGONA *       PTCLDY    68  61  77 S12G17    30.05F
CLARION *      PTCLDY    68  59  73 S9        30.08S
ESTHERVILLE    LGT RAIN  65  62  90 S16       30.00F
FORT DODGE *   CLOUDY    68  59  73 S7        30.08R
MASON CITY     LGT RAIN  65  59  81 S9        30.10R
FOREST CITY *  CLOUDY    66  61  82 S8        30.07R
IOWA FALLS *     N/A     66  57  72 S9        30.10R
$$

IAZ007>011-017>019-026>030-037>042-050>054-066-111100-
   NORTHEAST IOWA

CITY           SKY/WX    TMP DP  RH WIND       PRES   REMARKS
CEDAR RAPIDS   PTCLDY    64  56  75 S7        30.12R
CHARLES CITY * CLOUDY    64  59  82 S9        30.11R
CLINTON *      CLOUDY    63  57  82 SE7       30.18R
DECORAH *        N/A    N/A N/A N/A MISG        N/A
DUBUQUE        CLOUDY    63  59  87 S9        30.14F
MONTICELLO *   CLEAR     63  59  88 SE3       30.13R
OELWEIN *      CLOUDY    64  64 100 S8        30.13R
WATERLOO       CLOUDY    66  58  75 S8        30.09S
$$

IAZ064-065-067-068-078-111100-
   EAST CENTRAL IOWA

CITY           SKY/WX    TMP DP  RH WIND       PRES   REMARKS
DAVENPORT      MOCLDY    62  56  80 SE7       30.15R
IOWA CITY      PTCLDY    61  57  87 SE6       30.14R
MT. PLEASANT * CLEAR     61  55  82 SE7       30.13S
MUSCATINE *    PTCLDY    61  57  88 SE5       30.14R
QUAD CITIES    PTCLDY    63  56  78 S7        30.14S
$$

IAZ062-063-075>077-085>089-095>099-111100-
   SOUTHEAST IOWA

CITY           SKY/WX    TMP DP  RH WIND       PRES   REMARKS
BURLINGTON     CLEAR     66  54  65 S10       30.13S
FAIRFIELD *    MOCLDY    63  55  77 SE10      30.12R
FORT MADISON * CLEAR     66  55  68 SE9       30.14S
KEOKUK *       CLEAR     64  55  72 SE8       30.12S
OSKALOOSA *      N/A     61  59  94 SE7       30.10S
CENTERVILLE *  CLEAR     64  57  77 SE7       30.11S
OTTUMWA        PTCLDY    65  55  70 S10       30.10R
WASHINGTON *   CLEAR     61  57  88 S7        30.13R
$$

ABBREVIATIONS USED IN REMARKS
   TC - TEMPERATURES IN CELSIUS
  WCI - WIND CHILL INDEX
   HX - HEAT INDEX
  VSB - VISIBILITY
$$




USA.gov is the U.S. government's official web portal to all federal, state and local government web resources and services.